Regional Weather Roundup
Issued by NWS State College, PA

Home | Current Version | Previous Version | Text Only | Print | Product List | Glossary Off
Versions: 1 2 3 4 5 6 7 8 9 10 11 12 13 14 15 16 17 18 19 20 21 22 23 24 25 26 27 28 29 30 31 32 33 34 35 36 37 38 39 40 41 42 43 44 45 46 47 48 49 50

000
ASUS41 KCTP 201210
RWRCTP
NATIONAL WEATHER SERVICE STATE COLLEGE PA
800 AM EDT WED SEP 20 2017

Note: "fair" indicates few or no clouds below 12,000 feet with no
significant weather and/or obstructions to visibility.

* = STATION THAT DOES NOT REPORT PRECIPITATION /E.G. RAIN...SNOW...ETC/
    THUNDER OR FOG.

PAZ002>004-007>009-013>016-020>023-029>032-201300-
WESTERN PENNSYLVANIA

CITY           SKY/WX    TMP DP  RH WIND       PRES   REMARKS
ERIE           CLEAR     64  59  83 CALM      30.03R
MEADVILLE      CLEAR     62  60  93 CALM      30.06R
FRANKLIN*      CLEAR     57  57 100 CALM      30.07R
NEW CASTLE     FAIR      61  61 100 CALM      30.05R FOG
BEAVER COUNTY  CLOUDY    64  61  88 SE3       30.04R
BUTLER*        CLEAR     58  57  97 CALM      30.05R FOG
PITTSBURGH INT MOCLDY    64  62  93 CALM      30.03R
PITTSBURGH     PTCLDY    63  59  87 CALM      30.03R FOG
INDIANA*       SUNNY     57  57 100 CALM      30.08R FOG
LATROBE        PTCLDY    55  55 100 CALM      30.05R FOG
WASHINGTON CO* CLEAR     59  57  94 CALM      30.04R
$$

PAZ004>006-010>012-017>019-024>028-033>037-041-042-045-046-049>053-201300-
CENTRAL PENNSYLVANIA

CITY           SKY/WX    TMP DP  RH WIND       PRES   REMARKS
BRADFORD       SUNNY     54  53  97 CALM      30.08R
DUBOIS         SUNNY     58  56  93 CALM      30.06R FOG
CLEARFIELD     FOG       56  56 100 S3        30.07R VSB<1/4
JOHNSTOWN      MOSUNNY   60  60 100 SW3       30.07R FOG
ALTOONA        FOG       55  55 100 CALM      30.05R VSB 1/4
STATE COLLEGE  FOG       55  55 100 CALM      30.04R VSB 1/8
WILLIAMSPORT   CLOUDY    61  61 100 W7        30.01R FOG
SELINSGROVE    MOSUNNY   58  58 100 CALM      30.00R FOG
FT INDIANTOWN  CLOUDY    69  62  76 CALM      29.97R
CAPITAL CITY   CLOUDY    68  61  78 W5        29.97R
HARRISBURG     PTSUNNY   70  62  76 NW12      29.96R
YORK           CLOUDY    67  63  87 CALM      29.97R
$$

PAZ038>040-043-044-047-048-054-055-060>062-067>071-201300-
EASTERN PENNSYLVANIA

CITY           SKY/WX    TMP DP  RH WIND       PRES   REMARKS
SCRANTON       SUNNY     61  59  93 S5        30.01R
MOUNT POCONO   SUNNY     61  59  93 NW5       30.00R
ALLENTOWN      SUNNY     68  60  75 NW6       29.94R
QUAKERTOWN*    SUNNY     66  63  88 N5        29.94R
READING        CLOUDY    69  64  84 N5        29.95R
LANCASTER      CLOUDY    70  64  81 NW8       29.95R
COATESVILLE    CLOUDY    70  63  78 N7        29.95S
POTTSTOWN      MOSUNNY   66  64  93 CALM      29.95R
BLUE BELL      MOSUNNY   66  63  88 NW5       29.92S
DOYLESTOWN     SUNNY     68  62  81 N7        29.90R
WILLOW GROVE   NOT AVBL
NORTH PHILA    MOSUNNY   71  63  75 N12       29.90R
PHILADELPHIA   MOSUNNY   71  62  73 NW10      29.90R
$$




USA.gov is the U.S. government's official web portal to all federal, state and local government web resources and services.